Wetbulb
63.11 62.68 61.06 59.86 59.28 58.84 58.46 58.30 57.15 55.76 55.49 55.64 56.37 57.32 58.97 60.23 60.39 59.77 58.85 58.14 57.61 57.04 56.55 56.15 56.87 56.70 57.33 51.91 51.64 56.98 59.01 59.90 56.67 55.80 54.52 53.57 52.26 51.02 48.19 47.90 48.00 46.47 47.89 47.76 48.30 48.03 48.63
60.90 60.17 59.08 58.28 58.04 57.73 57.65 56.71 55.24 53.92 53.71 54.13 54.74 56.13 56.87 58.23 59.17 58.94 58.48 57.82 57.43 57.12 56.49 56.17 56.35 55.21 54.46 46.82 56.34 57.19 57.24 56.69 56.33 55.49 53.96 53.07 51.08 50.90 49.52 48.22 46.93 48.08 47.26 47.52 48.40 48.08 48.30
59.46 58.66 57.77 56.90 57.08 56.90 56.12 54.70 53.85 53.48 53.39 53.31 53.71 54.10 55.23 56.51 57.31 58.02 58.21 57.64 57.35 56.93 56.72 56.41 56.06 56.59 52.54 51.01 56.80 57.64 57.53 57.47 56.19 54.96 52.70 52.41 52.17 49.96 50.39 47.91 48.64 47.24 44.71 47.42 47.22 47.37 46.77
57.34 56.88 56.36 56.41 55.76 55.51 54.87 53.77 53.35 53.22 53.13 52.80 52.70 53.01 53.67 54.12 55.31 56.41 57.10 57.04 56.91 56.93 56.71 56.39 55.84 55.73 49.61 56.07 57.93 56.99 57.48 56.32 56.41 56.53 53.68 53.06 52.50 50.33 48.91 50.17 47.77 45.40 46.59 43.27 48.29 47.41 47.39
56.67 56.12 55.30 55.81 55.87 55.51 55.09 54.26 53.45 52.95 52.55 52.22 52.22 52.84 53.32 53.15 54.31 55.25 55.40 55.98 56.62 57.01 56.61 55.89 54.51 54.24 48.58 55.41 54.51 56.09 56.04 53.88 55.43 54.88 54.15 51.48 51.67 50.29 48.85 45.41 44.70 46.06 41.92 44.07 45.52 48.41 47.17
56.13 55.80 55.80 56.87 55.91 55.53 55.04 54.41 54.11 53.45 53.47 52.53 51.97 52.23 53.00 52.94 54.22 55.11 55.11 55.75 56.80 55.90 56.58 56.21 54.70 48.99 52.40 49.32 53.58 54.52 55.35 55.52 53.32 52.74 50.38 49.36 49.34 46.89 46.96 44.99 39.36 42.42 43.36 44.40 43.65 46.76 46.18
55.92 55.59 56.27 55.92 55.32 54.42 53.96 53.49 53.07 52.83 52.85 53.21 52.79 52.23 52.14 53.40 54.03 53.87 52.82 55.61 53.30 52.43 52.99 49.61 50.12 49.76 49.45 53.51 55.31 52.26 52.43 52.30 51.70 49.39 45.69 48.82 44.70 42.95 45.72 46.69 45.57 44.19 42.54 41.83 44.65 47.12 45.40
55.91 55.64 55.84 55.63 54.25 53.71 52.78 52.79 52.95 52.16 52.03 52.54 53.62 52.97 51.81 53.04 52.40 52.27 55.38 52.17 51.67 49.99 43.74 49.07 49.25 49.33 51.18 52.36 47.32 51.19 52.47 47.35 47.23 44.14 47.28 45.34 42.10 46.07 46.62 45.26 43.51 42.62 41.43 41.74 44.55 46.46 46.05
55.32 55.26 55.39 55.23 54.16 53.28 52.18 51.65 53.23 51.28 51.41 51.97 53.45 53.08 52.48 51.67 51.78 52.42 54.06 52.80 54.21 52.96 44.52 45.82 48.31 47.13 47.69 49.39 45.81 46.53 50.86 48.04 45.40 43.73 44.72 42.39 44.40 45.36 43.24 42.89 41.42 42.45 41.66 42.38 42.09 44.95 46.25
54.85 54.62 54.63 54.68 54.49 53.74 52.82 52.27 51.90 51.00 50.85 51.32 51.95 51.85 52.26 51.44 48.17 54.67 51.19 54.52 54.63 54.04 40.13 42.50 43.15 47.24 49.45 48.67 44.46 50.24 50.85 48.36 44.92 41.77 43.38 43.10 45.46 42.89 42.26 40.80 42.10 38.57 43.89 42.62 41.54 40.29 36.67
54.25 53.87 53.87 53.89 53.77 52.96 52.34 51.94 51.61 50.85 50.12 50.62 51.35 51.88 51.80 49.42 52.59 49.48 52.09 54.83 54.11 51.42 29.15 41.00 43.81 52.17 50.18 46.02 46.33 46.47 51.45 48.16 42.45 43.10 42.47 40.64 41.95 40.59 39.98 41.02 42.56 39.79 42.99 41.75 41.31 39.49 39.53
54.15 53.82 53.60 53.48 52.94 52.50 52.09 51.46 50.80 50.15 49.68 49.95 51.29 51.21 49.94 49.58 51.89 51.75 53.09 52.22 50.59 37.23 27.86 38.59 45.05 44.01 44.13 45.51 44.89 46.79 47.04 48.70 47.42 43.50 44.06 42.67 46.33 43.55 42.49 43.93 43.87 44.30 41.84 41.75 41.93 40.04 33.40
53.68 53.56 53.41 53.06 52.82 52.28 51.92 51.23 50.57 49.72 49.44 50.07 51.17 51.18 49.96 52.07 47.85 52.69 52.05 48.05 34.98 30.84 37.80 36.73 39.70 43.77 43.99 42.47 43.43 43.35 42.96 42.23 39.57 36.70 37.34 41.55 41.65 44.42 44.71 41.10 44.08 42.93 39.74 33.08 31.97 33.13 32.59
53.21 53.04 52.98 52.82 52.38 52.07 51.47 51.02 50.12 49.73 49.73 50.22 50.63 50.45 49.87 51.77 53.73 52.45 48.65 40.02 28.22 34.26 35.06 40.58 40.73 41.27 39.41 41.21 40.79 41.72 39.95 38.36 42.42 40.20 37.16 35.01 33.60 41.00 43.74 41.57 39.87 40.58 40.22 33.86 26.49 29.11 32.82
52.76 52.69 52.58 52.66 52.20 51.91 51.34 50.92 50.19 49.97 50.01 50.13 50.45 50.90 50.32 52.07 53.15 52.09 44.14 32.56 31.84 35.08 37.09 37.88 39.17 36.81 37.55 39.68 38.77 38.99 38.77 38.52 39.86 41.19 35.54 34.98 34.92 41.87 42.07 43.06 42.39 39.53 37.00 41.75 35.29 36.50 32.15
52.03 52.24 52.16 52.16 51.98 51.45 51.09 50.62 50.21 50.18 50.28 50.20 49.84 48.00 47.49 53.65 54.03 49.77 40.64 33.20 36.03 38.18 39.14 39.37 34.52 36.51 34.22 37.00 35.83 37.08 36.89 39.91 38.70 41.07 42.56 38.82 33.44 40.72 41.82 43.77 43.67 41.63 43.19 35.21 36.76 26.74 25.82
51.43 51.74 51.74 51.41 51.40 51.10 50.87 50.56 50.28 50.12 50.24 50.18 47.43 41.96 49.60 53.48 52.19 45.02 36.46 36.44 38.00 39.85 39.97 36.75 35.29 34.21 34.95 34.50 36.00 35.23 35.14 38.25 41.00 40.95 42.15 40.85 38.21 37.13 40.34 38.79 38.24 39.29 37.97 38.97 38.23 35.90 28.24
50.39 51.07 51.08 51.03 51.00 50.81 50.60 50.45 49.94 49.82 49.79 48.38 44.52 36.89 49.29 51.34 40.87 41.37 37.24 39.09 38.18 38.28 40.47 38.21 37.90 36.38 35.01 35.94 35.03 35.50 35.09 38.09 42.30 41.86 38.27 41.63 38.75 33.65 36.60 42.27 43.48 41.70 39.28 39.22 32.92 31.71 34.78
49.63 50.39 50.64 50.83 50.55 50.40 50.00 49.93 49.64 49.20 49.64 46.90 39.89 40.97 49.32 48.91 35.04 36.22 39.40 38.83 38.37 37.55 37.96 36.80 35.73 37.26 38.22 34.38 33.14 34.69 36.38 40.85 42.02 41.00 38.22 41.35 36.83 30.92 33.29 38.02 40.03 38.05 39.73 40.01 39.87 38.89 32.59
48.76 49.71 49.98 50.41 50.54 50.31 49.96 49.76 49.18 48.94 49.33 49.33 40.48 33.86 38.78 42.89 43.26 38.64 36.56 35.95 35.37 39.25 38.20 38.66 37.26 38.44 36.75 34.29 37.54 33.28 34.98 39.43 41.89 41.31 42.00 41.45 37.19 33.47 29.34 33.16 37.60 34.98 37.57 39.15 38.22 32.78 33.40
47.88 48.75 49.07 49.61 50.42 50.19 49.89 49.69 49.01 48.53 48.77 48.06 40.94 37.39 39.64 31.88 35.34 37.83 38.75 36.60 34.71 33.83 38.21 39.15 36.45 36.43 35.26 31.80 33.03 33.40 37.01 38.51 40.67 41.97 40.94 39.35 32.21 34.65 35.69 36.72 37.33 36.60 36.83 37.61 35.25 36.51 33.19
46.74 47.57 48.44 48.75 49.81 49.78 49.59 49.26 48.56 48.20 48.59 45.51 37.04 39.13 40.68 39.15 38.19 36.76 36.15 35.21 34.19 35.73 36.07 34.95 34.84 37.21 37.62 34.34 35.23 33.07 35.96 37.14 36.19 40.10 39.88 40.50 32.35 34.32 32.47 35.77 36.28 32.75 35.81 36.95 36.99 37.16 37.01
45.60 47.11 48.10 48.34 49.46 49.49 49.36 48.96 48.31 48.10 48.04 43.43 44.06 45.01 41.66 37.81 37.69 35.63 35.82 34.99 34.86 37.50 38.32 38.87 38.35 37.22 36.21 38.10 40.43 41.62 40.79 39.96 38.90 37.36 37.04 37.38 34.45 32.29 28.80 34.51 34.69 30.46 34.66 36.36 37.42 39.29 39.09
45.41 46.09 47.84 48.53 49.02 49.51 48.98 48.64 48.00 48.08 47.90 46.94 45.07 44.45 38.64 34.11 36.49 35.87 36.09 37.18 36.01 36.82 36.03 38.36 39.88 37.53 40.37 44.86 44.24 42.48 40.65 39.90 39.69 39.48 40.41 35.30 34.86 33.82 29.52 31.87 21.90 34.84 41.64 41.62 39.75 40.72 41.77
43.53 45.21 47.03 48.56 49.10 48.39 48.80 48.31 47.96 47.75 47.80 47.95 47.67 44.35 40.57 34.31 36.49 35.98 36.76 36.90 38.20 39.03 37.38 38.00 40.44 42.91 44.54 40.82 35.87 32.77 34.72 34.47 36.09 38.82 39.72 40.13 36.05 30.61 27.35 27.64 31.94 35.76 39.65 39.52 37.87 37.42 42.32
42.57 44.15 47.26 48.34 47.44 47.58 48.50 48.18 47.79 47.83 47.92 48.67 47.68 48.27 43.87 37.55 35.62 38.32 36.90 37.46 35.38 35.59 35.47 38.87 43.53 45.35 43.25 36.52 33.88 28.12 26.87 32.77 31.92 35.24 41.03 38.80 38.05 32.61 31.19 25.30 23.13 35.50 41.23 43.62 42.14 32.19 41.45
43.97 46.37 47.51 47.67 47.42 47.65 47.83 47.81 47.83 47.58 48.02 48.23 47.17 49.35 43.54 37.50 40.23 40.21 35.44 35.79 39.72 38.90 36.96 39.26 38.95 40.81 42.88 34.61 31.26 29.68 29.70 36.42 30.83 31.67 32.40 32.89 33.16 30.52 30.31 28.69 33.05 40.46 43.07 43.34 30.24 33.45 41.23
45.39 46.41 46.71 47.26 47.75 47.48 47.69 47.64 47.56 47.74 47.87 47.85 46.10 49.59 45.08 39.74 40.55 41.31 41.99 39.45 39.77 39.56 35.12 39.43 39.08 39.57 37.49 32.32 32.92 33.88 32.78 35.30 34.39 36.54 34.38 32.88 31.09 30.97 31.91 28.31 25.74 43.42 42.23 35.47 40.80 42.96 43.21
46.82 46.50 46.25 47.00 46.89 47.09 47.25 47.44 47.37 47.38 47.59 47.44 43.72 48.48 49.50 42.14 40.10 44.37 45.27 45.52 44.96 43.37 40.44 41.28 38.91 37.79 38.16 34.58 36.65 36.85 35.35 36.48 35.14 30.63 40.28 32.43 37.05 35.02 35.64 35.36 42.57 44.42 43.09 44.63 44.12 43.38 43.41
MSLP
1020.06 1020.40 1020.62 1020.98 1021.10 1021.49 1021.45 1021.45 1021.59 1022.02 1022.32 1022.03 1021.95 1021.67 1021.63 1021.40 1021.25 1021.36 1021.33 1021.22 1020.93 1020.76 1020.46 1020.11 1019.76 1018.92 1017.19 1014.67 1013.07 1013.52 1014.04 1013.72 1012.91 1012.18 1011.45 1011.05 1010.12 1009.48 1008.38 1008.37 1008.18 1007.72 1007.12 1007.44 1007.39 1007.66 1007.58
1019.58 1020.06 1020.58 1020.79 1021.05 1021.51 1021.28 1021.34 1021.66 1021.73 1021.93 1022.14 1021.84 1021.91 1021.45 1021.33 1021.03 1021.02 1021.27 1021.34 1021.05 1020.82 1020.35 1020.07 1019.78 1019.31 1017.22 1014.59 1013.39 1013.35 1013.35 1013.07 1012.62 1012.04 1011.46 1011.13 1010.97 1010.79 1009.71 1008.88 1008.65 1008.32 1008.16 1007.63 1007.32 1007.37 1007.45
1019.54 1019.98 1020.35 1020.81 1021.16 1021.47 1021.64 1021.58 1021.71 1021.73 1021.85 1021.79 1021.97 1021.77 1021.59 1021.38 1021.21 1020.69 1020.95 1020.93 1020.89 1020.79 1020.46 1020.09 1019.87 1018.93 1016.90 1014.16 1013.39 1013.19 1013.30 1012.94 1012.93 1012.47 1011.76 1011.72 1011.56 1011.02 1010.15 1009.05 1009.05 1008.70 1008.03 1006.75 1006.67 1006.90 1007.14
1020.11 1020.38 1020.85 1020.75 1020.85 1021.31 1021.51 1021.91 1021.88 1021.84 1021.86 1021.88 1021.83 1021.57 1021.69 1021.32 1021.13 1021.03 1020.47 1020.63 1020.73 1020.35 1020.18 1020.02 1019.92 1018.61 1015.47 1013.29 1013.50 1013.29 1012.74 1012.63 1012.90 1012.85 1012.50 1012.14 1011.90 1011.28 1010.60 1009.83 1009.19 1008.23 1007.23 1006.18 1004.67 1006.44 1006.92
1019.86 1020.47 1020.73 1021.11 1020.80 1020.96 1021.42 1021.64 1022.01 1021.81 1021.81 1021.88 1021.90 1021.91 1021.54 1021.42 1021.06 1020.77 1020.63 1020.42 1020.15 1020.17 1019.84 1019.70 1019.22 1017.45 1014.35 1013.93 1013.16 1012.68 1012.68 1012.37 1012.13 1012.43 1012.63 1012.62 1011.98 1010.85 1010.21 1009.40 1008.02 1006.91 1006.04 1004.94 1004.89 1005.85 1006.33
1019.84 1020.14 1020.25 1020.65 1020.70 1021.22 1020.98 1021.35 1021.73 1021.62 1021.65 1021.56 1021.65 1021.71 1021.55 1021.34 1021.10 1020.69 1020.24 1020.08 1019.31 1019.91 1018.72 1018.25 1017.71 1017.41 1014.43 1012.97 1012.83 1012.69 1012.79 1012.67 1012.42 1012.24 1012.10 1012.03 1011.29 1010.18 1009.18 1008.41 1006.90 1005.83 1005.60 1005.30 1005.11 1005.21 1006.03
1019.53 1019.73 1020.01 1020.20 1020.57 1020.35 1021.19 1021.37 1021.29 1021.63 1021.35 1021.40 1021.39 1021.53 1021.38 1021.15 1020.97 1020.86 1020.30 1019.58 1018.84 1017.94 1017.63 1015.53 1014.45 1014.17 1013.71 1013.20 1013.25 1012.22 1012.60 1012.48 1012.42 1012.08 1011.29 1010.75 1010.17 1008.87 1007.85 1007.91 1008.20 1008.09 1007.41 1006.51 1006.02 1005.87 1006.13
1019.31 1019.64 1019.78 1019.85 1020.32 1020.51 1020.89 1021.26 1021.17 1021.62 1021.45 1021.26 1021.25 1021.52 1021.32 1021.24 1020.76 1020.52 1020.08 1018.14 1017.92 1018.64 1016.53 1014.71 1014.40 1014.05 1014.09 1014.34 1013.13 1012.59 1012.98 1012.33 1011.99 1011.38 1010.51 1010.75 1009.71 1008.77 1008.86 1009.46 1009.55 1008.98 1008.05 1007.08 1006.69 1006.54 1006.52
1019.15 1019.46 1019.75 1019.75 1019.97 1020.34 1020.66 1020.87 1021.10 1021.38 1021.67 1021.43 1021.24 1021.14 1021.31 1021.20 1021.14 1020.33 1018.81 1018.13 1018.57 1018.77 1016.81 1013.73 1013.90 1013.75 1013.62 1014.20 1013.32 1012.06 1012.36 1012.02 1011.61 1011.20 1010.58 1010.23 1009.34 1010.05 1010.12 1009.89 1009.70 1009.15 1008.46 1007.82 1007.44 1007.39 1007.10
1018.67 1018.96 1019.32 1019.63 1019.80 1020.22 1020.66 1020.57 1020.99 1021.09 1021.65 1021.47 1021.34 1021.21 1021.19 1021.42 1021.30 1018.90 1018.64 1018.62 1018.90 1019.07 1017.01 1013.71 1013.92 1013.31 1013.93 1013.89 1013.20 1012.79 1012.50 1012.18 1011.74 1011.44 1010.82 1010.44 1010.07 1010.42 1010.42 1010.24 1010.11 1009.49 1009.18 1008.86 1008.84 1008.74 1007.06
1018.01 1018.53 1018.91 1019.21 1019.67 1019.69 1020.33 1020.44 1020.73 1021.03 1021.11 1021.45 1021.68 1021.11 1021.47 1021.32 1020.09 1019.07 1019.16 1019.40 1019.14 1019.01 1016.44 1013.75 1013.28 1014.09 1013.70 1013.48 1013.01 1012.97 1013.08 1012.40 1011.83 1011.46 1011.82 1010.39 1010.52 1010.66 1010.54 1010.15 1010.58 1010.41 1010.44 1010.32 1009.73 1009.12 1008.23
1017.68 1017.88 1018.41 1018.89 1019.10 1019.64 1019.82 1020.18 1020.66 1020.85 1020.93 1021.03 1021.26 1021.29 1021.33 1021.26 1020.31 1020.11 1020.14 1019.75 1019.44 1018.01 1014.98 1013.75 1013.59 1013.58 1013.57 1013.40 1013.22 1013.14 1012.98 1013.07 1012.51 1011.93 1011.30 1010.94 1010.85 1010.91 1010.86 1010.59 1010.66 1010.96 1010.90 1010.62 1009.90 1009.14 1007.80
1017.14 1017.42 1017.82 1018.21 1018.71 1018.97 1019.49 1020.00 1020.29 1020.75 1020.84 1021.04 1020.90 1021.16 1021.05 1020.77 1020.22 1020.27 1020.62 1019.65 1018.85 1016.36 1014.09 1013.23 1013.01 1013.15 1012.97 1012.69 1012.82 1012.75 1012.45 1012.29 1011.75 1011.47 1010.69 1010.13 1010.20 1010.17 1010.80 1010.70 1010.37 1010.87 1010.74 1009.81 1008.78 1007.56 1006.19
1016.53 1016.86 1017.28 1017.76 1018.03 1018.53 1018.99 1019.54 1020.13 1020.35 1020.83 1021.06 1020.98 1021.20 1020.77 1020.54 1020.24 1020.40 1020.48 1019.16 1017.34 1014.39 1013.48 1013.52 1013.00 1012.99 1012.72 1012.95 1012.61 1012.58 1012.00 1011.37 1011.11 1011.09 1010.66 1009.73 1009.16 1009.41 1009.85 1010.11 1009.43 1009.28 1009.58 1009.31 1008.44 1007.49 1006.49
1015.92 1016.20 1016.61 1017.26 1017.70 1018.20 1018.56 1019.21 1019.71 1020.00 1020.58 1021.04 1021.11 1020.86 1020.08 1020.13 1020.55 1020.11 1019.55 1018.37 1015.61 1014.18 1013.96 1013.80 1013.55 1012.76 1012.72 1012.97 1013.08 1012.80 1011.92 1011.43 1010.80 1010.92 1010.95 1010.22 1009.95 1009.87 1010.33 1010.15 1010.13 1009.32 1009.49 1009.67 1009.32 1008.96 1008.33
1015.33 1015.48 1015.98 1016.54 1017.18 1017.67 1018.19 1018.90 1019.34 1019.69 1020.48 1021.07 1020.51 1020.28 1019.41 1019.63 1020.33 1019.75 1018.83 1016.68 1015.31 1015.28 1015.06 1014.51 1013.68 1013.14 1012.66 1012.62 1013.33 1012.96 1011.99 1011.60 1011.70 1011.87 1011.52 1011.30 1011.01 1010.46 1010.01 1010.13 1009.99 1009.90 1009.88 1009.82 1009.66 1009.67 1008.54
1014.68 1014.94 1015.29 1015.80 1016.50 1017.15 1017.67 1018.34 1019.07 1019.66 1020.50 1020.72 1020.46 1019.79 1019.12 1019.71 1019.99 1018.94 1017.41 1016.28 1015.49 1015.73 1015.67 1015.21 1014.15 1014.17 1013.72 1013.85 1013.73 1013.44 1012.61 1012.31 1012.69 1012.18 1012.29 1011.93 1011.74 1011.07 1010.61 1010.01 1009.36 1009.12 1009.51 1009.68 1010.02 1010.20 1009.92
1014.12 1014.27 1014.58 1015.11 1015.71 1016.50 1017.17 1017.68 1018.65 1019.34 1020.21 1020.60 1019.92 1019.57 1019.18 1019.56 1019.11 1018.11 1017.23 1016.38 1016.53 1016.12 1015.99 1015.66 1015.63 1015.26 1014.98 1015.04 1014.91 1014.36 1013.78 1012.96 1013.34 1012.96 1012.63 1012.25 1012.27 1011.80 1010.80 1009.89 1009.58 1009.65 1009.53 1009.78 1010.35 1010.20 1010.27
1013.48 1013.64 1013.89 1014.26 1014.90 1015.74 1016.39 1017.24 1017.83 1018.78 1019.55 1019.38 1019.49 1019.24 1019.79 1019.47 1017.85 1017.38 1016.76 1016.38 1017.04 1016.24 1015.87 1015.71 1015.81 1015.84 1016.02 1016.25 1016.22 1015.77 1014.81 1014.27 1013.98 1013.74 1013.65 1013.28 1012.91 1012.20 1010.80 1010.09 1009.82 1009.77 1009.83 1009.77 1009.87 1010.24 1010.47
1012.81 1012.85 1013.23 1013.67 1014.08 1014.88 1015.64 1016.52 1017.50 1018.28 1018.83 1019.09 1019.10 1019.31 1020.24 1019.77 1017.65 1016.48 1016.47 1016.53 1016.63 1016.65 1016.25 1016.20 1016.23 1016.46 1016.58 1016.66 1016.72 1016.61 1015.57 1015.14 1015.04 1014.70 1015.15 1015.22 1014.00 1013.18 1012.12 1011.33 1011.10 1010.90 1010.89 1010.50 1010.66 1010.80 1010.59
1012.14 1012.26 1012.51 1012.91 1013.31 1013.97 1014.75 1015.70 1016.70 1017.62 1018.21 1019.31 1018.36 1017.45 1018.01 1018.25 1018.06 1017.05 1016.02 1016.19 1016.12 1016.31 1016.62 1016.45 1016.31 1016.55 1016.62 1016.97 1016.88 1016.33 1015.99 1015.46 1015.26 1015.35 1015.41 1015.58 1014.32 1013.99 1013.30 1012.75 1012.14 1011.34 1010.68 1010.44 1010.21 1009.84 1009.81
1011.39 1011.46 1011.65 1012.07 1012.59 1013.03 1014.06 1015.07 1015.65 1016.89 1017.85 1018.49 1017.89 1016.86 1016.62 1016.24 1017.37 1017.19 1016.39 1016.28 1016.15 1015.86 1016.28 1016.33 1016.13 1015.83 1016.19 1016.16 1016.38 1016.12 1015.99 1015.95 1015.73 1015.74 1015.02 1014.68 1014.20 1014.42 1014.04 1013.85 1012.85 1011.67 1011.39 1011.10 1010.57 1010.06 1009.55
1010.54 1010.61 1010.79 1011.11 1011.91 1011.94 1013.16 1014.52 1015.50 1016.32 1017.18 1017.38 1016.98 1016.26 1016.38 1016.21 1016.24 1016.70 1016.33 1016.60 1016.46 1016.26 1016.12 1016.32 1016.05 1015.99 1015.92 1016.05 1016.34 1016.48 1016.60 1016.72 1016.47 1016.08 1015.39 1014.97 1014.73 1014.51 1013.36 1013.02 1011.90 1010.41 1009.83 1009.60 1009.14 1008.77 1008.29
1009.47 1009.56 1009.65 1010.02 1010.91 1010.92 1012.28 1013.64 1014.74 1015.61 1016.04 1015.89 1016.25 1016.54 1016.31 1016.06 1015.82 1015.83 1016.23 1016.44 1016.41 1016.51 1016.25 1016.15 1016.21 1016.14 1016.29 1016.56 1017.00 1016.58 1016.47 1016.16 1015.91 1015.48 1015.28 1014.79 1014.65 1014.51 1013.70 1013.14 1011.31 1009.55 1008.80 1008.09 1007.72 1007.70 1007.58
1008.37 1008.55 1008.80 1008.86 1009.77 1010.71 1012.12 1013.06 1014.20 1015.17 1015.97 1015.97 1016.08 1016.27 1016.28 1016.25 1015.94 1015.95 1016.10 1016.09 1016.10 1016.27 1016.47 1016.28 1015.85 1015.87 1016.27 1017.59 1017.40 1016.48 1015.10 1014.72 1013.96 1013.72 1013.49 1013.73 1014.07 1014.10 1013.52 1012.26 1010.44 1008.58 1007.42 1007.06 1007.36 1007.63 1007.41
1007.15 1007.69 1007.93 1008.15 1009.07 1010.19 1011.44 1012.59 1013.57 1014.68 1015.60 1016.18 1016.27 1016.42 1016.81 1016.57 1015.88 1015.81 1015.80 1016.04 1016.03 1016.14 1016.34 1016.14 1016.09 1016.19 1016.81 1017.62 1017.52 1015.84 1013.95 1012.61 1011.52 1011.11 1011.59 1012.66 1013.65 1013.94 1012.64 1011.42 1009.49 1007.54 1007.66 1007.76 1008.05 1007.86 1008.16
1006.32 1006.38 1006.92 1007.60 1008.51 1009.77 1010.92 1012.20 1013.25 1014.19 1015.19 1015.93 1016.39 1016.73 1017.11 1017.08 1016.13 1015.95 1015.99 1016.11 1016.24 1016.09 1015.67 1015.37 1015.90 1015.83 1016.34 1017.01 1016.85 1015.22 1013.29 1012.02 1010.90 1010.33 1011.00 1011.79 1012.82 1012.65 1012.04 1010.74 1008.85 1007.40 1007.52 1008.20 1008.57 1009.07 1009.10
1005.10 1005.60 1006.09 1006.72 1007.99 1009.23 1010.46 1011.75 1012.86 1013.81 1014.83 1015.78 1016.26 1016.77 1016.90 1016.79 1016.38 1016.52 1016.26 1016.04 1016.01 1016.48 1016.04 1015.76 1016.06 1015.75 1016.83 1016.99 1016.18 1014.23 1012.60 1011.18 1010.61 1009.75 1010.20 1010.35 1011.14 1010.84 1010.82 1010.01 1008.75 1007.51 1008.05 1008.57 1008.90 1009.16 1009.33
1003.97 1004.87 1005.98 1006.19 1007.60 1008.88 1010.21 1011.46 1012.59 1013.77 1014.72 1015.78 1016.36 1016.72 1017.24 1017.60 1017.53 1017.35 1016.49 1016.21 1015.71 1015.62 1016.22 1015.94 1016.01 1016.33 1016.80 1016.70 1015.91 1014.22 1012.54 1011.10 1010.24 1009.62 1009.14 1009.41 1008.93 1008.48 1008.63 1008.33 1008.50 1008.32 1008.60 1008.82 1009.20 1009.18 1009.83
Wind_Speed
13 12 11 11 9 7 5 4 3 0 4 4 6 6 8 8 7 9 9 9 7 8 9 12 14 18 14 9 12 7 3 9 11 6 6 11 11 9 7 6 7 10 10 5 6 6 8
12 11 8 6 6 6 7 6 5 3 1 3 4 7 7 7 5 6 8 9 9 10 6 9 13 21 12 14 5 3 4 7 7 8 5 6 7 10 11 8 7 6 10 12 10 11 11
10 11 11 10 6 5 4 4 5 4 3 2 4 5 7 8 7 5 7 8 9 11 9 9 10 11 15 17 5 7 7 8 6 6 8 3 6 8 7 9 2 9 13 14 14 14 12
7 7 4 7 8 6 5 5 4 4 3 2 2 4 6 7 8 8 6 8 10 10 9 9 10 13 9 4 8 11 11 10 6 7 7 4 5 9 8 7 11 12 15 14 7 8 7
10 7 5 5 8 9 8 7 4 4 3 1 2 4 5 8 7 8 9 10 10 11 10 10 12 10 9 4 7 2 4 7 7 6 4 5 7 9 5 12 13 14 14 14 11 12 6
13 12 12 11 9 8 10 7 7 5 7 4 3 3 5 6 7 7 7 9 6 10 11 10 8 8 8 3 3 4 2 6 6 6 8 9 8 10 11 11 13 14 12 9 11 7 10
14 15 13 12 12 13 10 9 8 7 7 6 6 4 4 5 5 8 9 7 9 10 11 11 5 12 5 4 7 6 2 6 9 9 13 11 10 14 14 8 12 12 16 19 18 16 11
16 15 16 16 14 12 10 9 7 7 7 6 7 6 3 3 3 6 9 7 7 6 11 14 16 17 14 8 8 9 4 8 10 15 13 8 14 13 9 8 13 16 18 19 19 17 17
17 15 15 15 16 14 12 9 8 6 7 7 7 6 1 1 5 5 7 2 5 6 8 8 7 9 6 9 9 10 9 9 12 14 15 14 9 2 5 12 15 15 16 16 17 18 20
17 15 15 14 14 13 11 9 6 6 5 6 8 3 5 2 4 2 5 4 1 3 7 9 7 5 7 5 6 3 5 11 9 11 12 12 8 10 11 15 15 16 16 13 14 15 15
18 17 16 15 14 14 13 9 7 7 4 6 10 6 5 4 7 5 7 1 2 4 6 4 7 5 4 7 3 5 2 8 13 9 6 4 7 6 8 7 3 11 5 11 12 14 17
19 19 18 17 16 14 13 11 9 8 6 5 7 8 6 5 4 6 2 2 3 4 8 4 4 6 7 7 4 5 3 5 2 8 12 16 13 7 12 9 9 10 9 15 16 15 17
20 20 19 19 17 16 15 13 12 9 6 5 7 10 7 2 2 2 3 4 4 7 4 7 6 7 10 8 8 8 8 8 9 7 12 12 14 15 14 14 12 13 12 10 12 12 15
20 20 21 20 19 18 17 16 13 11 7 6 5 8 5 3 2 4 3 4 9 2 6 2 5 8 9 8 5 7 7 10 10 10 11 12 8 11 7 12 12 9 12 12 19 15 15
21 21 21 21 20 19 18 17 15 12 9 7 9 7 5 6 4 5 7 7 5 6 3 5 7 10 9 8 5 5 9 12 4 5 8 5 7 2 6 7 7 7 11 14 16 18 15
21 22 22 21 20 20 19 18 16 13 11 10 8 5 6 8 6 7 8 8 8 1 4 5 10 4 9 10 4 6 7 1 3 4 6 6 10 11 9 9 14 16 11 10 6 13 19
19 22 23 22 22 21 20 20 17 15 13 13 5 3 7 8 6 9 10 13 8 4 3 3 5 3 5 4 6 11 7 2 6 5 8 10 8 8 6 10 13 12 15 14 15 13 12
19 21 23 24 24 23 22 22 20 17 15 12 4 4 5 9 9 8 13 13 4 8 7 4 3 4 6 7 8 11 12 6 1 6 7 5 6 11 17 15 13 13 16 10 8 16 13
20 20 21 24 25 25 24 23 23 21 20 9 4 3 4 8 10 10 11 11 8 9 9 6 6 4 5 4 5 6 13 6 11 7 5 8 7 10 13 15 20 15 18 18 16 15 16
20 21 21 23 25 26 26 25 24 23 23 9 4 4 2 5 12 11 16 13 14 7 9 6 5 4 8 7 9 5 8 6 6 9 10 6 13 15 13 15 16 12 15 13 15 9 14
20 21 23 22 27 28 28 28 27 25 23 8 5 5 10 7 10 12 11 7 14 8 11 8 8 14 11 6 10 14 15 14 11 12 16 11 17 15 17 20 21 22 22 19 21 20 19
20 17 24 23 25 29 27 27 29 27 23 11 5 3 7 6 17 15 9 11 10 12 8 10 12 8 11 14 12 7 3 8 11 8 11 16 20 15 8 14 20 22 18 16 22 24 25
23 21 24 26 26 31 31 31 29 27 22 8 7 5 6 5 12 13 14 12 9 11 8 12 9 9 10 10 8 10 10 11 12 14 12 11 8 12 19 16 19 20 12 20 24 24 23
23 22 25 30 28 33 30 30 29 29 26 8 8 5 5 4 10 12 8 15 13 11 12 7 11 12 6 5 8 10 12 15 17 18 18 18 15 13 14 15 20 15 17 14 15 15 15
23 21 22 29 30 25 27 31 30 27 28 8 7 6 4 6 8 11 15 12 12 13 14 15 14 12 9 3 6 8 10 11 18 24 23 20 16 10 14 15 17 22 16 15 8 14 13
22 27 26 26 26 29 26 30 30 27 27 9 6 5 3 3 8 9 10 9 10 10 11 16 16 11 9 4 4 10 9 9 5 5 22 20 14 12 10 14 16 11 5 5 1 10 5
27 25 24 25 33 30 28 29 29 27 25 13 4 9 4 5 7 5 9 9 10 8 7 5 3 7 7 4 6 9 13 16 12 12 8 13 12 17 15 14 13 17 10 5 7 2 3
23 24 17 29 30 31 31 30 27 24 24 16 7 9 8 4 7 5 10 9 6 4 3 2 3 7 3 5 6 9 8 10 13 12 7 12 10 9 12 15 15 11 8 5 3 1 3
18 25 22 18 25 27 24 24 24 25 22 18 5 6 6 4 4 6 13 16 14 15 8 5 6 3 3 3 4 6 6 4 10 5 15 9 12 10 7 6 4 3 4 3 2 2 2
Wind_Direction
216 195 174 171 171 179 173 155 144 243 319 328 327 318 308 298 299 298 301 302 301 310 333 334 332 324 326 315 281 98 240 235 269 305 329 329 306 319 295 321 304 257 291 281 256 254 254
171 160 167 174 166 190 177 169 180 178 225 314 328 323 322 311 303 310 302 291 293 298 317 329 332 319 311 279 7 329 321 288 280 300 324 332 335 335 289 280 275 2 291 281 259 253 239
169 171 175 175 171 175 188 171 175 158 140 82 0 341 337 321 305 293 291 282 291 297 310 316 321 307 289 262 325 290 288 285 304 308 310 347 315 283 345 264 254 266 268 254 228 231 232
147 143 177 164 160 169 163 187 171 147 127 90 24 1 341 342 326 298 273 275 285 282 295 298 305 291 268 306 310 285 261 250 242 273 287 302 293 285 266 327 250 253 245 266 188 188 181
145 159 175 221 177 171 178 180 201 187 167 125 4 335 340 340 329 287 284 286 270 270 277 270 270 238 272 115 227 36 299 249 228 229 256 284 265 272 216 238 255 217 265 255 187 183 253
180 185 187 194 174 185 172 177 195 223 218 236 241 305 333 334 339 329 279 254 259 268 229 247 247 267 244 268 349 321 276 268 234 222 231 234 242 246 217 245 258 306 291 255 258 235 198
195 191 190 181 183 174 192 196 191 225 223 253 221 247 311 333 328 316 294 234 227 191 219 256 334 267 264 342 255 203 196 219 232 230 247 191 252 235 261 332 324 296 283 277 279 289 272
204 199 191 182 186 188 193 202 201 228 252 265 219 231 284 335 318 302 278 270 23 356 294 263 253 265 278 293 284 230 220 224 205 242 217 228 244 263 341 307 283 275 272 270 277 276 273
204 202 197 187 188 190 195 203 194 228 272 273 231 229 189 238 313 263 256 349 8 313 259 263 226 259 249 224 250 248 190 236 245 248 248 244 271 121 265 271 270 262 266 278 284 300 294
202 197 198 198 193 193 201 201 212 192 264 281 256 213 149 239 262 145 206 106 64 330 275 169 190 155 170 231 228 275 260 233 225 257 256 265 277 293 276 261 264 275 284 295 297 277 275
201 200 198 197 197 191 193 198 201 196 244 309 292 199 183 215 342 226 57 187 118 235 277 95 132 67 165 222 75 151 265 214 246 207 245 248 193 216 243 263 299 282 340 284 281 274 281
206 198 198 198 194 192 191 190 190 189 227 256 255 151 162 222 252 28 351 160 220 199 240 143 123 187 181 200 200 136 196 231 302 251 246 260 286 269 266 274 272 265 276 261 260 261 263
212 203 202 200 196 190 188 186 178 190 208 249 195 166 194 274 4 65 215 197 182 226 125 169 187 185 225 170 187 210 187 193 228 228 231 218 236 231 220 254 239 232 257 273 271 252 260
222 208 204 203 195 193 184 182 181 183 187 210 200 169 186 244 160 155 225 205 225 254 207 51 187 189 207 175 199 213 236 249 201 262 272 272 261 191 167 251 274 272 247 256 276 285 299
232 215 205 203 198 195 186 183 182 176 173 189 163 205 215 187 223 205 202 210 248 258 79 209 186 187 186 193 283 238 251 277 284 234 248 310 255 74 244 270 251 262 240 263 277 276 273
241 223 209 202 197 192 187 183 181 170 169 177 199 212 217 151 206 210 218 233 231 136 272 237 229 253 232 205 208 201 254 102 227 269 283 274 277 279 272 271 237 255 282 284 253 270 267
244 231 214 203 196 193 185 179 175 170 168 188 229 214 136 174 203 214 217 226 216 184 251 266 218 213 251 257 255 268 266 195 236 190 274 273 269 259 227 239 261 232 241 244 262 276 277
250 234 219 208 195 191 184 176 169 167 174 187 185 220 157 181 194 211 232 232 49 200 190 197 287 281 255 270 263 263 270 252 38 301 270 259 282 272 268 276 275 266 279 269 261 267 272
246 230 226 214 198 191 184 179 167 171 179 174 200 154 147 234 206 206 231 209 230 208 209 196 236 249 266 248 278 283 268 295 310 264 302 301 240 258 257 235 231 247 255 261 271 277 270
251 236 220 222 202 190 183 175 171 174 188 201 167 167 152 225 255 232 212 214 211 231 245 224 254 224 241 242 244 243 239 240 266 268 41 323 268 269 275 295 314 274 276 297 292 266 277
251 242 224 227 209 192 182 175 172 177 188 196 212 227 174 176 226 226 223 225 211 191 226 213 223 229 231 220 263 249 245 260 272 266 258 248 262 268 276 285 286 286 287 293 285 284 276
255 252 231 218 216 185 175 182 171 177 181 200 169 204 161 226 198 214 197 218 222 212 194 217 233 209 222 237 210 250 257 258 269 266 294 225 251 263 262 271 267 262 263 261 264 268 271
245 242 240 216 213 186 181 181 176 179 172 203 202 213 235 202 184 196 218 214 235 246 207 248 239 251 243 254 287 281 282 276 262 270 254 255 254 248 264 263 271 262 241 236 256 259 263
243 254 248 207 213 183 175 178 179 180 188 180 186 196 212 204 217 200 212 220 224 229 237 223 230 243 274 40 328 279 261 260 260 249 238 248 243 249 265 278 269 271 257 258 248 261 277
243 263 240 196 186 178 192 186 184 182 194 184 177 191 192 214 202 211 210 219 220 228 232 257 257 266 282 34 278 268 247 245 239 236 233 225 242 257 250 252 263 270 233 227 240 277 283
239 260 218 199 177 180 186 182 180 179 189 187 178 211 172 245 212 229 228 249 253 251 256 253 248 254 246 195 216 247 250 245 241 229 205 221 218 234 247 236 255 269 127 76 66 274 68
239 234 215 194 181 181 178 185 181 178 182 188 168 197 164 221 246 243 212 224 216 231 239 218 198 234 199 187 213 247 248 255 248 243 176 191 203 225 230 255 268 283 124 124 248 359 161
223 202 188 191 186 179 178 177 177 174 179 186 193 192 215 222 241 210 250 242 209 216 233 90 269 210 153 226 228 235 252 250 239 253 194 182 202 216 233 250 262 261 109 233 62 137 140
195 175 184 169 160 160 163 168 170 168 168 184 206 174 206 239 346 321 264 261 271 281 275 232 270 205 204 236 238 286 256 264 231 247 205 219 216 214 218 207 4 285 39 90 329 221 191